World > North America > United States > Virginia   City of Harrisonburg, Virginia
Hourly Weather in Harrisonburg, VirginiaHarrisonburg, Virginia Hourly Weather

Harrisonburg, VA Hourly Weather

Hourly Weather Harrisonburg, VirginiaHourly Weather in Harrisonburg, VA
Lat: 38.44N, Lon: 78.87W  ICAO: KSHD
Web Search

Pass this page to a friend. Tell them to point their camera at the QR Code near the bottom of this page.

Feedback

Harrisonburg Hourly Weather

36 Hour Weather Scroll   °F Click to change Harrisonburg hourly weather to Imperial units.Click to change Harrisonburg hourly weather to Metric units. °C
Currently, Clear, temperature is 40°F4°C, dew point 16°F-9°C, humidity 38%. Wind direction is ENE at 6 mph10 km/h with visibility of 10.00 mi16 km. Barometric pressure is 30 in1016 mb.

Dec 07
4:00 PM

Dec 07
5:00 PM

Dec 07
6:00 PM

Dec 07
7:00 PM

Dec 07
8:00 PM

Dec 07
9:00 PM

Dec 07
10:00 PM

Dec 07
11:00 PM

Dec 08
MIDNIGHT

Dec 08
1:00 AM

Dec 08
2:00 AM

Dec 08
3:00 AM

Dec 08
4:00 AM

Dec 08
5:00 AM

Dec 08
6:00 AM

Dec 08
7:00 AM

Dec 08
8:00 AM

Dec 08
9:00 AM

Dec 08
10:00 AM

Dec 08
11:00 AM

Dec 08
NOON

Dec 08
1:00 PM

Dec 08
2:00 PM

Dec 08
3:00 PM

Dec 08
4:00 PM

Dec 08
5:00 PM

Dec 08
6:00 PM

Dec 08
7:00 PM

Dec 08
8:00 PM

Dec 08
9:00 PM

Dec 08
10:00 PM

Dec 08
11:00 PM

Dec 09
MIDNIGHT

Dec 09
1:00 AM

Dec 09
2:00 AM

Dec 09
3:00 AM
Clear Clear Partly Cloudy Partly Cloudy Partly Cloudy Mostly Cloudy Mostly Cloudy Mostly Cloudy Cloudy Cloudy Cloudy Cloudy Cloudy Cloudy Cloudy Cloudy Cloudy Cloudy Cloudy Cloudy Cloudy Cloudy Cloudy Mostly Cloudy Mostly Cloudy Mostly Cloudy Clear Clear Clear Clear Clear Clear Clear Clear Clear Clear
Clear Clear Partly Cloudy Partly Cloudy Partly Cloudy Mostly Cloudy Mostly Cloudy Mostly Cloudy Cloudy Cloudy Cloudy Cloudy Cloudy Cloudy Cloudy Cloudy Cloudy Cloudy Cloudy Cloudy Cloudy Cloudy Cloudy Mostly Cloudy Mostly Cloudy Mostly Cloudy Clear Clear Clear Clear Clear Clear Clear Clear Clear Clear
41°F5°C 38°F3°C 35°F2°C 32°F0°C 31°F-1°C 31°F-1°C 30°F-1°C 30°F-1°C 31°F-1°C 31°F-1°C 30°F-1°C 30°F-1°C 29°F-2°C 29°F-2°C 28°F-2°C 28°F-2°C 31°F-1°C 34°F1°C 37°F3°C 39°F4°C 41°F5°C 43°F6°C 43°F6°C 44°F7°C 44°F7°C 42°F6°C 41°F5°C 39°F4°C 38°F3°C 36°F2°C 35°F2°C 34°F1°C 32°F0°C 31°F-1°C 30°F-1°C 30°F-1°C
- - - - - - - - - - - - - - - - - - - - - - - - - - - - - - - - - - - -
0% 0% 0% 0% 0% 0% 0% 0% 0% 0% 4% 4% 4% 4% 4% 4% 19% 19% 19% 19% 19% 19% 1% 1% 1% 1% 1% 1% 0% 0% 0% 0% 0% 0% 0% 0%
13°F-11°C 14°F-10°C 14°F-10°C 15°F-9°C 16°F-9°C 17°F-8°C 18°F-8°C 19°F-7°C 19°F-7°C 20°F-7°C 19°F-7°C 19°F-7°C 18°F-8°C 18°F-8°C 17°F-8°C 17°F-8°C 18°F-8°C 18°F-8°C 19°F-7°C 20°F-7°C 22°F-6°C 23°F-5°C 24°F-4°C 25°F-4°C 26°F-3°C 26°F-3°C 27°F-3°C 27°F-3°C 27°F-3°C 27°F-3°C 27°F-3°C 26°F-3°C 26°F-3°C 25°F-4°C 24°F-4°C 23°F-5°C
31% 37% 42% 49% 53% 56% 60% 63% 61% 63% 63% 63% 63% 63% 63% 63% 58% 51% 48% 46% 46% 45% 47% 47% 49% 53% 57% 62% 64% 69% 72% 72% 78% 78% 78% 75%
SSE SE SE SE E NE N NE E SE E NE N N N N ENE SE S S SSE SSE SW SW SSW SSW SSW W W W WNW WNW W W S E
2 mph 2 mph 1 mph 1 mph 1 mph 0 mph 0 mph 0 mph 1 mph 1 mph 1 mph 0 mph 0 mph 0 mph 0 mph 0 mph 0 mph 2 mph 2 mph 2 mph 4 mph 4 mph 4 mph 5 mph 5 mph 5 mph 3 mph 3 mph 3 mph 3 mph 3 mph 3 mph 1 mph 1 mph 1 mph 0 mph
10 mi16 km 10 mi16 km 10 mi16 km 10 mi16 km 10 mi16 km 10 mi16 km 10 mi16 km 10 mi16 km 10 mi16 km 10 mi16 km 10 mi16 km 10 mi16 km 10 mi16 km 10 mi16 km 10 mi16 km 10 mi16 km 10 mi16 km 10 mi16 km 10 mi16 km 10 mi16 km 10 mi16 km 10 mi16 km 10 mi16 km 10 mi16 km 10 mi16 km 10 mi16 km 10 mi16 km 10 mi16 km 10 mi16 km 10 mi16 km 10 mi16 km 10 mi16 km 10 mi16 km 10 mi16 km 10 mi16 km 10 mi16 km
Hour (EST)
Weather
Clouds
Temperature
Precip. Type
POP
Dewpoint
Humidity
Wind Direction
Wind Speed
Visibility
POP = Probability of Precipitation. ** Indicates missing data/values from model statistics.

24 Hour Forecast

Today - Mostly sunny. Cooler with highs in the lower 40s...Except in the mid 30s at The higher elevations. South winds around 5 mph.
Tonight - Mostly cloudy. A chance of snow after midnight. Lows around 30. South winds around 5 mph. Chance of snow 30%.

48 Hour Forecast API Feed


Tue, Dec 7
4:00 pm

Tue, Dec 7
5:00 pm

Tue, Dec 7
6:00 pm

Tue, Dec 7
7:00 pm

Tue, Dec 7
8:00 pm

Tue, Dec 7
9:00 pm

Tue, Dec 7
10:00 pm

Tue, Dec 7
11:00 pm

Wed, Dec 8
Midnight

Wed, Dec 8
1:00 am

Wed, Dec 8
2:00 am

Wed, Dec 8
3:00 am

Wed, Dec 8
4:00 am

Wed, Dec 8
5:00 am

Wed, Dec 8
6:00 am

Wed, Dec 8
7:00 am

Wed, Dec 8
8:00 am

Wed, Dec 8
9:00 am

Wed, Dec 8
10:00 am

Wed, Dec 8
11:00 am

Wed, Dec 8
Noon

Wed, Dec 8
1:00 pm

Wed, Dec 8
2:00 pm

Wed, Dec 8
3:00 pm

Wed, Dec 8
4:00 pm

Wed, Dec 8
5:00 pm

Wed, Dec 8
6:00 pm

Wed, Dec 8
7:00 pm

Wed, Dec 8
8:00 pm

Wed, Dec 8
9:00 pm

Wed, Dec 8
10:00 pm

Wed, Dec 8
11:00 pm

Thu, Dec 9
Midnight

Thu, Dec 9
1:00 am

Thu, Dec 9
2:00 am

Thu, Dec 9
3:00 am

Thu, Dec 9
4:00 am

Thu, Dec 9
5:00 am

Thu, Dec 9
6:00 am

Thu, Dec 9
7:00 am

Thu, Dec 9
8:00 am

Thu, Dec 9
9:00 am

Thu, Dec 9
10:00 am

Thu, Dec 9
11:00 am

Thu, Dec 9
Noon

Thu, Dec 9
1:00 pm

Thu, Dec 9
2:00 pm

Thu, Dec 9
3:00 pm
Partly CloudyClearClearClearClearClearClearPartly CloudyPartly CloudyPartly CloudyPartly CloudyPartly CloudyPartly CloudyPartly CloudyPartly CloudyPartly CloudyOvercastOvercastCloudyOvercastPartly CloudyPartly CloudySunnyPartly CloudyPartly CloudyPartly CloudyClearClearClearClearClearClearClearClearClearClearClearClearClearClearOvercastOvercastOvercastPartly CloudyOvercastSunnySunnySunny
Partly cloudy Clear Clear Clear Clear Clear Clear Partly cloudy Partly cloudy Partly cloudy Partly cloudy Partly cloudy Partly cloudy Partly cloudy Partly cloudy Partly cloudy Overcast Overcast Cloudy Overcast Partly cloudy Partly cloudy Sunny Partly cloudy Partly cloudy Partly cloudy Clear Clear Clear Clear Clear Clear Clear Clear Clear Clear Clear Clear Clear Clear Overcast Overcast Overcast Partly cloudy Overcast Sunny Sunny Sunny
42°F
5°C
40°F
5°C
35°F
2°C
32°F
0°C
30°F
-1°C
29°F
-1°C
30°F
-1°C
30°F
-1°C
29°F
-1°C
29°F
-2°C
29°F
-2°C
29°F
-2°C
28°F
-2°C
29°F
-2°C
29°F
-2°C
29°F
-1°C
30°F
-1°C
31°F
-0°C
34°F
1°C
38°F
3°C
41°F
5°C
45°F
7°C
47°F
8°C
48°F
9°C
50°F
10°C
48°F
9°C
42°F
6°C
38°F
4°C
33°F
1°C
33°F
0°C
31°F
-1°C
30°F
-1°C
28°F
-2°C
27°F
-3°C
26°F
-3°C
25°F
-4°C
25°F
-4°C
26°F
-3°C
26°F
-3°C
25°F
-4°C
24°F
-4°C
27°F
-3°C
31°F
-1°C
36°F
2°C
39°F
4°C
44°F
6°C
43°F
6°C
45°F
7°C
11°F
-12°C
13°F
-10°C
13°F
-11°C
12°F
-11°C
11°F
-12°C
11°F
-12°C
12°F
-11°C
13°F
-11°C
13°F
-11°C
13°F
-11°C
13°F
-10°C
14°F
-10°C
13°F
-10°C
14°F
-10°C
14°F
-10°C
14°F
-10°C
14°F
-10°C
14°F
-10°C
15°F
-10°C
17°F
-9°C
19°F
-7°C
23°F
-5°C
24°F
-4°C
26°F
-3°C
28°F
-2°C
30°F
-1°C
29°F
-1°C
29°F
-2°C
26°F
-3°C
26°F
-3°C
25°F
-4°C
24°F
-4°C
23°F
-5°C
22°F
-6°C
21°F
-6°C
20°F
-7°C
20°F
-7°C
21°F
-6°C
21°F
-6°C
20°F
-7°C
19°F
-7°C
19°F
-7°C
18°F
-8°C
20°F
-7°C
20°F
-7°C
22°F
-5°C
22°F
-6°C
23°F
-5°C
30.15 in
1021 mb
30.15 in
1021 mb
30.18 in
1022 mb
30.18 in
1022 mb
30.21 in
1023 mb
30.21 in
1023 mb
30.21 in
1023 mb
30.21 in
1023 mb
30.18 in
1022 mb
30.18 in
1022 mb
30.15 in
1021 mb
30.12 in
1020 mb
30.12 in
1020 mb
30.09 in
1019 mb
30.09 in
1019 mb
30.09 in
1019 mb
30.09 in
1019 mb
30.09 in
1019 mb
30.06 in
1018 mb
30.03 in
1017 mb
30 in
1016 mb
29.97 in
1015 mb
29.91 in
1013 mb
29.88 in
1012 mb
29.88 in
1012 mb
29.88 in
1012 mb
29.94 in
1014 mb
29.97 in
1015 mb
30.03 in
1017 mb
30.06 in
1018 mb
30.09 in
1019 mb
30.09 in
1019 mb
30.09 in
1019 mb
30.12 in
1020 mb
30.15 in
1021 mb
30.15 in
1021 mb
30.18 in
1022 mb
30.21 in
1023 mb
30.21 in
1023 mb
30.24 in
1024 mb
30.27 in
1025 mb
30.27 in
1025 mb
30.27 in
1025 mb
30.27 in
1025 mb
30.24 in
1024 mb
30.21 in
1023 mb
30.18 in
1022 mb
30.15 in
1021 mb
28%33%38%42%44%45%46%47%50%50%51%52%53%52%51%51%50%48%45%42%41%41%41%42%43%49%60%69%74%76%78%80%81%81%80%80%80%80%80%80%79%71%59%52%46%42%41%41%
SSWSSESESSESSSESSESSSESSESSESSESSSSSWSSWSSSWSSSWSSWSSWSWWSWWNWWNWWNWWNWWNWWNWWNWWWSWWSWWSWWSWWSWWSWWSWWWNWSSWSSESSSSSE
4 mph
6 km/h
3 mph
5 km/h
3 mph
4 km/h
2 mph
3 km/h
2 mph
3 km/h
3 mph
4 km/h
3 mph
4 km/h
2 mph
4 km/h
3 mph
4 km/h
2 mph
4 km/h
3 mph
5 km/h
2 mph
4 km/h
2 mph
4 km/h
2 mph
3 km/h
2 mph
4 km/h
2 mph
3 km/h
2 mph
3 km/h
3 mph
5 km/h
4 mph
6 km/h
4 mph
6 km/h
4 mph
7 km/h
5 mph
8 km/h
4 mph
7 km/h
5 mph
8 km/h
6 mph
10 km/h
6 mph
10 km/h
6 mph
9 km/h
6 mph
9 km/h
6 mph
9 km/h
5 mph
8 km/h
4 mph
7 km/h
4 mph
6 km/h
3 mph
5 km/h
2 mph
4 km/h
3 mph
5 km/h
3 mph
5 km/h
3 mph
5 km/h
4 mph
6 km/h
3 mph
5 km/h
3 mph
5 km/h
3 mph
4 km/h
2 mph
4 km/h
1 mph
1 km/h
3 mph
4 km/h
4 mph
7 km/h
6 mph
9 km/h
7 mph
12 km/h
8 mph
13 km/h
0%0%0%0%0%0%0%0%0%0%0%0%0%0%0%0%0%0%0%0%0%0%0%0%0%0%0%0%0%0%0%0%0%0%0%0%0%0%0%0%0%0%0%0%0%0%0%0%
6 mi
10 km
6 mi
10 km
6 mi
10 km
6 mi
10 km
6 mi
10 km
6 mi
10 km
6 mi
10 km
6 mi
10 km
6 mi
10 km
6 mi
10 km
6 mi
10 km
6 mi
10 km
6 mi
10 km
6 mi
10 km
6 mi
10 km
6 mi
10 km
6 mi
10 km
6 mi
10 km
6 mi
10 km
6 mi
10 km
6 mi
10 km
6 mi
10 km
6 mi
10 km
6 mi
10 km
6 mi
10 km
6 mi
10 km
6 mi
10 km
6 mi
10 km
6 mi
10 km
6 mi
10 km
6 mi
10 km
6 mi
10 km
6 mi
10 km
6 mi
10 km
6 mi
10 km
6 mi
10 km
6 mi
10 km
6 mi
10 km
6 mi
10 km
6 mi
10 km
6 mi
10 km
6 mi
10 km
6 mi
10 km
6 mi
10 km
6 mi
10 km
6 mi
10 km
6 mi
10 km
6 mi
10 km

Day/Time
Weather
Condition
Temperature
Dew Point
Pressure
Humidity
Wind Direction
Wind Speed
Prob Precip %
Visibility
Prob Precip % = Probability of Precipitation.